Temperature
13 13 13 13 13 13 12 12 12 12 12 12 12 12 11 11 11 11 11 11 11 11 11 11 11 10 10 10 10 10 10 10 10 10 10 10 10 10
13 13 13 13 13 13 12 12 12 12 12 12 11 11 11 11 11 11 11 11 11 11 10 10 10 10 10 10 10 10 10 10 10 10 10 10 9 9
13 13 13 13 13 13 12 12 12 12 12 12 11 11 11 11 11 11 11 11 10 10 10 10 10 10 10 10 10 10 10 10 9 9 9 9 9 9
13 13 13 13 13 12 12 12 12 12 12 11 11 11 11 11 11 11 11 10 10 10 10 10 10 10 10 10 10 10 10 9 9 9 9 9 9 9
13 13 13 13 12 12 12 12 12 12 11 11 11 11 11 11 11 11 11 11 10 10 10 10 10 10 10 10 10 9 9 9 9 9 9 9 9 8
13 13 13 13 12 12 12 12 12 12 11 11 11 11 11 11 11 11 11 10 10 10 10 10 10 10 10 10 9 9 9 9 9 9 9 9 9 8
13 13 13 12 12 12 12 12 12 11 11 11 11 11 11 11 11 11 10 10 10 10 10 10 10 10 10 9 9 9 9 9 9 9 9 9 8 8
12 12 12 12 12 12 12 12 12 11 11 11 11 11 11 11 11 10 10 10 10 10 10 10 10 9 9 9 9 9 9 9 9 9 8 8 8 8
12 12 12 12 12 12 12 12 12 11 11 11 11 11 11 11 10 10 10 10 10 10 9 10 9 9 9 9 9 9 9 9 8 8 8 8 8 8
12 12 12 12 12 12 11 11 11 11 11 11 11 11 10 10 10 10 10 9 9 9 9 9 9 9 9 9 9 9 9 8 8 8 8 8 8 8
11 11 11 11 11 11 11 11 11 11 11 11 10 10 10 10 10 9 9 9 9 9 9 9 9 9 9 9 9 8 8 8 8 8 8 8 8 7
11 11 11 11 11 11 11 11 11 11 11 10 10 10 10 10 9 9 9 9 9 9 9 8 8 8 8 8 9 8 8 8 8 8 8 8 7 7
11 10 10 10 10 10 10 10 10 10 10 10 10 10 10 9 9 9 9 9 9 9 9 8 8 8 8 8 8 8 8 8 8 8 8 7 7 7
10 10 10 10 10 10 10 10 10 9 9 9 9 9 9 9 9 9 9 9 8 8 8 8 8 8 8 8 8 8 8 8 8 8 7 7 7 7
10 10 10 10 9 9 9 9 9 9 9 9 9 9 9 9 9 8 8 8 8 8 8 8 8 8 7 7 7 8 8 8 8 8 7 7 7 7
9 9 9 9 9 9 9 9 9 9 8 8 8 8 8 8 8 8 8 8 8 8 8 8 8 7 7 7 7 7 8 7 8 7 7 7 7 6
9 9 9 9 9 9 9 8 8 8 8 8 8 8 8 8 8 8 8 8 8 8 8 8 7 7 7 7 7 7 7 7 7 7 7 6 6 6
8 8 8 8 8 8 8 8 8 8 8 8 7 7 7 7 7 7 7 7 7 7 7 7 7 7 7 7 7 7 7 7 7 6 6 6 6 6
8 8 8 8 8 8 7 7 7 7 7 7 7 7 7 7 7 7 7 7 6 7 7 6 6 6 6 6 7 7 7 7 6 6 6 6 6 6
7 7 7 7 7 7 7 7 7 7 7 7 7 6 6 6 6 6 6 6 6 6 6 6 6 6 6 6 6 6 6 6 6 6 6 6 6 6
7 7 6 6 6 6 6 6 6 6 6 6 6 6 6 6 6 6 6 6 6 6 6 6 6 5 5 5 5 6 6 6 5 5 5 5 5 5
6 6 6 6 6 6 6 6 6 6 6 6 6 5 5 5 5 5 5 5 5 5 5 5 5 5 5 5 5 5 5 5 5 5 5 5 4 4
5 5 5 5 5 5 5 5 5 5 5 5 5 5 5 5 5 5 5 5 4 5 5 5 5 4 4 4 4 4 5 5 5 4 5 5 4 4
Wind_Speed
3 3 2 2 2 2 3 3 4 2 2 2 2 2 2 1 1 1 1 2 3 4 4 4 5 5 5 6 6 6 6 6 6 6 5 5 6 6
2 3 2 2 2 2 2 2 3 4 2 2 2 1 1 1 1 1 0 1 2 2 3 3 4 4 5 5 6 5 4 4 5 5 5 5 5 5
2 3 3 2 2 2 3 3 3 3 3 1 1 1 0 0 1 1 0 1 1 1 1 1 2 3 3 3 3 4 4 3 3 3 3 3 4 4
4 3 3 3 3 3 3 3 3 3 4 2 1 1 1 1 0 0 1 1 1 1 0 1 1 1 2 2 2 2 2 2 2 1 2 2 2 3
4 5 4 4 4 3 4 4 3 3 3 3 2 1 0 0 1 1 1 1 1 1 1 1 1 1 1 1 1 2 1 1 1 0 1 1 1 2
4 5 5 6 6 6 5 5 4 4 3 3 2 1 1 0 1 0 1 1 1 1 1 1 2 2 2 2 3 3 3 3 3 2 2 1 1 2
4 4 5 6 7 6 5 6 6 5 4 3 2 1 2 1 2 2 2 0 1 1 0 1 1 1 2 3 3 4 5 5 4 4 3 3 2 2
4 4 4 5 6 7 7 8 9 7 6 5 4 4 4 4 3 3 2 1 2 1 1 1 1 2 3 4 5 5 5 5 5 5 4 4 4 4
5 4 3 3 4 4 6 7 8 9 9 7 6 7 6 6 5 4 4 3 3 2 2 2 1 2 4 5 6 6 6 6 6 5 5 5 4 4
5 5 5 5 4 5 4 3 4 6 7 6 7 7 7 6 7 6 5 3 0 1 3 2 2 2 3 5 6 6 6 7 7 7 7 7 6 6
4 4 5 5 6 6 5 4 4 4 6 8 8 8 8 9 9 5 4 3 2 2 3 3 2 2 2 2 6 7 7 8 8 8 8 8 7 6
3 3 6 6 6 7 6 6 5 5 3 3 4 5 5 7 10 8 7 5 3 3 4 4 2 2 2 2 2 4 6 8 8 8 9 8 7 5
3 3 4 6 7 7 7 6 8 5 3 4 3 2 2 3 5 7 7 6 5 4 5 5 3 3 3 2 2 3 4 5 6 7 8 9 8 7
4 4 4 6 6 6 5 6 6 4 2 2 3 3 3 4 4 6 8 8 7 6 7 8 4 5 4 3 3 2 3 4 5 5 6 7 8 9
4 5 5 5 5 4 5 5 4 2 3 3 4 4 4 4 3 3 4 5 4 5 6 8 5 4 4 5 4 3 2 3 4 4 4 5 5 5
3 3 3 3 3 3 3 3 3 3 3 4 4 3 1 1 2 3 3 3 2 3 4 7 8 6 5 5 5 4 4 3 3 4 4 4 6 7
2 1 1 1 1 1 1 2 2 2 3 3 3 3 3 3 2 2 2 3 4 4 3 2 4 5 4 4 4 6 5 4 4 4 3 4 5 7
3 2 3 3 4 4 4 3 3 4 4 4 4 4 4 4 4 2 2 4 5 5 4 3 2 1 2 4 7 7 6 5 4 4 4 4 6 6
3 4 4 4 4 4 4 4 5 5 4 4 4 4 4 4 4 4 4 4 5 5 5 4 4 4 5 6 5 8 7 5 4 4 5 6 6 6
3 4 5 5 5 5 5 5 5 4 4 4 5 5 4 4 4 5 5 6 6 5 4 4 5 7 8 7 4 4 9 6 5 5 5 4 5 6
4 4 5 5 4 5 5 5 5 5 5 5 5 5 5 5 5 5 5 6 6 5 6 7 7 7 4 2 3 5 4 9 9 5 4 3 3 3
4 4 4 4 4 5 5 4 4 5 5 5 5 5 5 5 6 6 6 5 6 6 7 5 3 4 4 6 8 7 6 4 6 10 9 7 4 5
5 5 4 4 4 4 4 4 5 5 5 5 5 5 6 6 6 6 6 6 6 6 6 5 4 4 5 6 7 6 7 5 3 3 5 9 11 11
Wind_Direction
195 187 186 191 177 176 165 160 157 185 276 277 290 314 323 352 35 72 74 59 57 60 63 69 74 72 72 72 73 72 71 73 71 73 70 66 65 60
188 175 186 188 171 166 163 160 159 168 207 248 241 279 294 35 49 66 102 54 54 61 67 77 83 86 88 81 76 76 75 74 72 72 72 67 56 49
195 186 206 182 174 172 159 157 164 157 179 255 259 303 296 16 49 50 355 308 337 33 74 85 89 90 88 83 80 77 74 76 77 69 65 64 55 45
210 198 214 188 188 181 173 180 184 178 167 193 231 243 245 241 202 13 338 310 267 284 180 142 126 118 106 93 89 92 88 86 83 66 47 51 37 27
207 206 213 189 203 196 187 189 191 180 162 167 196 203 238 357 53 14 9 353 302 269 246 228 221 204 191 182 179 170 172 176 180 245 325 349 356 348
213 211 207 199 206 198 193 192 180 168 159 160 172 190 203 235 132 165 346 343 311 308 280 250 238 231 224 217 212 207 212 217 223 228 236 261 298 310
221 220 216 212 210 198 193 187 177 174 170 172 185 179 199 196 212 196 196 287 309 272 1 300 254 245 247 238 230 226 225 228 229 229 230 235 251 278
220 227 230 224 225 216 209 194 185 182 186 186 195 204 219 210 184 179 168 156 270 259 177 272 205 245 257 243 239 234 230 228 227 228 232 234 246 258
212 216 230 226 213 208 217 213 207 208 199 188 192 211 209 203 179 178 188 191 217 214 166 240 225 250 259 252 246 236 232 227 227 232 234 233 242 246
214 213 217 227 211 190 183 194 213 220 218 210 209 216 211 195 187 188 186 178 244 251 173 211 229 246 272 255 250 240 237 236 237 240 240 234 239 243
228 221 217 222 217 193 173 188 220 245 231 222 229 229 221 203 180 150 154 166 222 234 194 194 220 242 267 261 253 246 243 242 242 241 241 236 237 239
235 234 231 226 220 202 189 189 214 237 220 219 228 235 217 203 192 184 182 186 194 225 203 189 197 188 266 261 256 253 247 247 245 245 246 237 233 228
227 239 239 230 224 217 207 205 222 222 201 201 210 216 201 196 199 197 192 191 198 219 197 179 186 189 214 261 284 256 236 243 243 246 249 240 229 219
222 231 231 226 223 221 219 226 223 210 180 185 200 215 216 219 217 206 205 207 213 215 194 181 188 191 195 228 261 270 251 242 236 241 244 239 234 232
220 221 224 219 214 217 220 216 203 183 179 196 218 230 229 222 202 198 206 208 223 231 203 195 194 196 198 215 231 242 257 254 231 232 240 235 230 228
232 229 230 225 218 219 218 215 207 199 200 213 224 236 226 202 210 205 208 204 219 255 231 216 208 195 210 226 226 240 233 237 241 239 245 251 242 234
185 174 180 182 194 213 215 210 204 204 214 217 217 222 219 216 226 213 208 204 214 232 239 231 216 213 217 217 235 242 240 245 245 231 228 254 252 240
177 188 210 211 213 216 217 225 222 219 220 217 217 219 220 222 224 215 207 209 224 236 234 215 192 212 267 260 229 235 237 241 240 226 223 239 258 254
196 215 220 221 222 219 218 220 227 226 216 215 220 221 220 220 220 220 219 225 234 240 237 212 198 201 233 258 252 218 224 235 230 232 234 231 248 256
213 223 229 227 224 223 225 227 230 223 216 218 221 222 217 218 224 226 223 225 233 237 238 225 215 214 224 243 256 251 225 225 226 239 245 242 258 274
232 233 234 232 229 227 227 226 223 223 220 215 219 219 217 218 226 230 230 233 234 235 237 239 235 229 232 234 261 266 256 232 229 232 233 235 254 259
242 239 239 236 233 231 230 226 224 225 221 220 221 220 219 219 226 229 231 234 236 238 245 249 228 207 213 231 248 257 267 272 255 247 240 224 219 229
245 240 235 233 232 227 226 227 226 230 227 225 225 224 222 224 228 230 232 236 241 243 245 245 232 225 231 235 246 258 263 265 267 264 261 255 251 256
Height
1550 1550 1550 1551 1551 1551 1551 1551 1552 1550 1550 1550 1550 1550 1549 1549 1548 1548 1548 1548 1547 1547 1547 1546 1546 1545 1545 1545 1546 1546 1546 1546 1546 1546 1546 1546 1546 1546
1548 1549 1549 1549 1549 1549 1550 1550 1550 1550 1549 1549 1549 1549 1549 1548 1548 1548 1548 1548 1547 1547 1547 1546 1546 1546 1546 1546 1546 1546 1546 1546 1546 1546 1546 1545 1545 1545
1546 1547 1547 1547 1548 1548 1548 1548 1548 1548 1548 1549 1549 1548 1548 1548 1547 1547 1547 1547 1547 1547 1546 1546 1546 1546 1546 1546 1546 1546 1546 1546 1545 1545 1545 1545 1544 1544
1544 1545 1545 1545 1546 1546 1546 1546 1547 1547 1547 1547 1547 1547 1547 1547 1547 1547 1546 1546 1546 1546 1546 1546 1546 1545 1545 1545 1545 1545 1545 1545 1545 1544 1544 1544 1544 1543
1542 1542 1543 1543 1543 1544 1544 1544 1545 1545 1545 1545 1545 1545 1545 1545 1545 1545 1545 1545 1545 1545 1545 1545 1545 1545 1545 1544 1544 1544 1544 1543 1543 1543 1543 1542 1542 1542
1539 1539 1540 1540 1541 1541 1541 1542 1542 1542 1543 1543 1543 1543 1543 1543 1543 1543 1543 1544 1544 1544 1544 1543 1543 1543 1543 1543 1543 1542 1542 1542 1542 1541 1541 1541 1540 1540
1535 1536 1536 1537 1538 1538 1538 1539 1539 1539 1540 1540 1540 1540 1541 1541 1541 1541 1541 1541 1541 1542 1541 1541 1541 1541 1541 1541 1541 1541 1540 1540 1540 1540 1539 1539 1538 1538
1531 1532 1533 1533 1534 1535 1535 1536 1536 1537 1537 1537 1537 1537 1537 1538 1538 1539 1539 1538 1538 1539 1539 1539 1539 1539 1539 1539 1539 1539 1538 1538 1538 1538 1537 1537 1536 1535
1527 1527 1528 1529 1530 1531 1532 1532 1533 1533 1534 1534 1534 1534 1534 1535 1535 1535 1536 1536 1536 1536 1536 1535 1536 1536 1536 1536 1536 1536 1536 1536 1535 1535 1535 1534 1534 1533
1522 1523 1524 1525 1526 1527 1527 1528 1529 1529 1530 1530 1530 1531 1531 1532 1532 1533 1533 1533 1533 1533 1533 1532 1532 1533 1533 1533 1533 1533 1533 1533 1533 1532 1532 1532 1531 1530
1518 1519 1520 1521 1522 1523 1523 1523 1524 1525 1525 1526 1526 1527 1527 1528 1528 1528 1528 1529 1528 1529 1530 1529 1529 1529 1529 1529 1529 1529 1529 1529 1529 1529 1529 1528 1528 1527
1513 1514 1515 1516 1517 1518 1518 1519 1519 1520 1521 1521 1521 1522 1522 1523 1523 1524 1524 1524 1524 1525 1525 1526 1525 1525 1524 1524 1525 1525 1525 1525 1525 1525 1525 1525 1524 1523
1508 1509 1510 1511 1512 1513 1513 1514 1514 1515 1515 1516 1516 1517 1518 1518 1518 1519 1520 1520 1520 1520 1522 1522 1521 1522 1522 1520 1520 1521 1521 1521 1521 1521 1521 1520 1520 1519
1504 1505 1506 1507 1508 1508 1508 1509 1510 1510 1510 1510 1511 1511 1512 1513 1513 1514 1515 1515 1516 1516 1517 1517 1517 1517 1517 1516 1516 1516 1516 1516 1516 1516 1516 1516 1515 1515
1499 1501 1502 1503 1503 1503 1504 1504 1505 1505 1505 1505 1505 1506 1507 1508 1508 1509 1509 1510 1510 1511 1511 1512 1512 1513 1513 1512 1511 1511 1511 1511 1511 1511 1511 1510 1510 1510
1495 1496 1497 1498 1498 1499 1499 1499 1500 1500 1500 1500 1500 1501 1502 1502 1503 1503 1504 1504 1504 1505 1506 1506 1507 1507 1507 1507 1507 1506 1506 1506 1506 1506 1505 1505 1505 1504
1490 1491 1491 1492 1493 1493 1494 1494 1494 1495 1495 1495 1495 1496 1496 1496 1497 1497 1498 1498 1498 1498 1499 1500 1501 1501 1501 1501 1500 1500 1501 1500 1500 1500 1499 1499 1499 1499
1485 1485 1486 1486 1487 1487 1488 1488 1489 1489 1489 1490 1490 1490 1490 1491 1491 1492 1492 1492 1492 1492 1493 1494 1494 1494 1495 1494 1495 1494 1494 1494 1495 1494 1494 1493 1492 1493
1479 1479 1480 1481 1481 1482 1482 1483 1483 1484 1484 1484 1484 1485 1485 1485 1485 1486 1486 1486 1486 1487 1487 1488 1488 1488 1487 1486 1487 1489 1488 1488 1488 1488 1487 1487 1486 1487
1474 1474 1474 1475 1476 1476 1476 1477 1477 1478 1478 1478 1479 1479 1479 1479 1479 1480 1480 1480 1480 1481 1481 1481 1481 1481 1481 1481 1481 1481 1482 1482 1481 1481 1481 1481 1480 1480
1468 1468 1469 1469 1470 1470 1471 1471 1472 1472 1472 1472 1473 1473 1473 1473 1473 1474 1474 1474 1474 1474 1474 1474 1475 1476 1476 1476 1474 1473 1475 1475 1475 1475 1474 1474 1473 1473
1462 1462 1463 1463 1464 1464 1464 1465 1465 1465 1466 1466 1466 1467 1467 1467 1467 1467 1467 1468 1467 1468 1468 1468 1469 1469 1469 1468 1467 1467 1467 1468 1468 1468 1468 1468 1467 1466
1456 1457 1457 1457 1457 1458 1458 1458 1459 1459 1459 1459 1460 1460 1461 1461 1461 1461 1461 1461 1461 1461 1461 1461 1461 1461 1461 1461 1461 1460 1460 1460 1460 1460 1460 1461 1461 1461